This demonstration page uses our WeatherBlox Daily Observations layout. Learn more.

Left ArrowRight Arrow

36.19886, -115.1175

Hourly Observations for July 2, 2015

Temp ( °F °C ) Dew Point ( °F °C ) Humidity (%) Winds ( mph kmh ) Pressure ( in mb ) Visibility ( mi km ) Precip ( " mm )
12:53 am 00:53 Clear 90 32.2 56 13.3 32 32 ENE 15 24 29.85 1011 10 16 0.00 0.00
1:53 am 01:53 Partly Cloudy 89 31.7 57 13.9 34 34 ESE 13 20 29.88 1012 10 16 0.00 0.00
2:53 am 02:53 Mostly Cloudy with Light Rain 88 31.1 58 14.4 36 36 E 10 17 29.89 1012 10 16 0.00 0.03
3:53 am 03:53 Mostly Clear 83 28.3 65 18.3 55 55 NNE 7 11 29.88 1012 10 16 0.00 0.03
4:53 am 04:53 Mostly Clear 83 28.3 64 17.8 53 53 SE 6 9 29.90 1012 10 16 0.00 0.00
5:53 am 05:53 Sunny 83 28.3 65 18.3 55 55 S 5 7 29.93 1013 10 16 0.00 0.00
6:53 am 06:53 Mostly Cloudy with Light Rain 81 27.2 67 19.4 62 62 WNW 10 17 29.92 1013 7 11 0.00 0.03
7:53 am 07:53 Sunny 84 28.9 66 18.9 55 55 Calm 29.92 1013 10 16 0.00 0.03
8:53 am 08:53 Sunny 86 30 64 17.8 48 48 S 5 7 29.93 1014 10 16 0.00 0.00
9:53 am 09:53 Sunny 88 31.1 62 16.7 42 42 S 5 7 29.93 1013 10 16 0.00 0.00
10:53 am 10:53 Sunny 91 32.8 60 15.6 35 35 Calm 29.92 1013 10 16 0.00 0.00
11:53 am 11:53 Sunny 95 35 60 15.6 31 31 VRB 3 6 29.91 1013 10 16 0.00 0.00
12:53 pm 12:53 Sunny 97 36.1 61 16.1 30 30 Calm 29.88 1012 10 16 0.00 0.00
1:53 pm 13:53 Sunny 99 37.2 59 15 27 27 undefined N/A 29.85 1011 10 16 0.00 0.00
2:53 pm 14:53 Sunny 100 37.8 57 13.9 24 24 SSE 9 15 29.83 1010 10 16 0.00 0.00
3:53 pm 15:53 Sunny 101 38.3 56 13.3 22 22 Calm 29.79 1009 10 16 0.00 0.00
4:53 pm 16:53 Sunny 102 38.9 55 12.8 21 21 SW 9 15 29.76 1008 10 16 0.00 0.00
5:53 pm 17:53 Sunny 102 38.9 54 12.2 20 20 VRB 3 6 29.74 1007 10 16 0.00 0.00
6:53 pm 18:53 Sunny 102 38.9 54 12.2 20 20 S 7 11 29.74 1007 10 16 0.00 0.00
7:53 pm 19:53 Sunny 101 38.3 53 11.7 20 20 ESE 5 7 29.75 1007 10 16 0.00 0.00
8:53 pm 20:53 Clear 100 37.8 53 11.7 21 21 SSE 10 17 29.77 1008 10 16 0.00 0.00
9:53 pm 21:53 Clear 97 36.1 53 11.7 23 23 SSE 7 11 29.78 1008 10 16 0.00 0.00
10:53 pm 22:53 Clear 97 36.1 55 12.8 24 24 W 5 7 29.78 1008 10 16 0.00 0.00
11:53 pm 23:53 Clear 94 34.4 55 12.8 27 27 NW 6 9 29.78 1009 10 16 0.00 0.00

Powered by AerisWeather